GFSMA_prec_precacc12_084.txt.gz
Total_Precipitation_Accumulation
0.08 0.09 0.10 0.00 0.00 0.00 0.00 0.00 0.00 0.00 0.00 0.00 0.00 0.00 0.00 0.00 0.00 0.00 0.00 0.00 0.00 0.00 0.00 0.00 0.00 0.00 0.00 0.00 0.00 0.00 0.00 0.00 0.00 0.00 0.00 0.00 0.00 0.00 0.00 0.00 0.00 0.00 0.00
0.06 0.04 0.04 0.01 0.00 0.00 0.00 0.00 0.00 0.00 0.00 0.00 0.00 0.00 0.00 0.00 0.00 0.00 0.00 0.00 0.00 0.00 0.00 0.00 0.00 0.00 0.00 0.00 0.00 0.00 0.00 0.00 0.00 0.00 0.00 0.00 0.00 0.00 0.00 0.00 0.00 0.00 0.00
0.09 0.02 0.02 0.01 0.00 0.00 0.00 0.00 0.00 0.00 0.00 0.00 0.00 0.00 0.00 0.00 0.00 0.00 0.00 0.00 0.00 0.00 0.00 0.00 0.00 0.00 0.00 0.00 0.00 0.00 0.00 0.00 0.00 0.00 0.00 0.00 0.00 0.00 0.00 0.00 0.00 0.00 0.00
0.06 0.04 0.02 0.00 0.00 0.00 0.00 0.00 0.00 0.00 0.00 0.00 0.00 0.00 0.00 0.00 0.00 0.00 0.00 0.00 0.00 0.00 0.00 0.00 0.00 0.00 0.00 0.00 0.00 0.00 0.00 0.00 0.00 0.00 0.00 0.00 0.00 0.00 0.00 0.00 0.00 0.00 0.00
0.04 0.03 0.03 0.02 0.03 0.01 0.00 0.00 0.00 0.00 0.00 0.00 0.00 0.00 0.00 0.00 0.00 0.00 0.00 0.00 0.00 0.00 0.00 0.00 0.00 0.00 0.00 0.00 0.00 0.00 0.00 0.00 0.00 0.00 0.00 0.00 0.00 0.00 0.00 0.00 0.00 0.00 0.00
0.01 0.02 0.03 0.10 0.10 0.05 0.01 0.00 0.00 0.00 0.00 0.00 0.00 0.00 0.00 0.00 0.00 0.00 0.00 0.00 0.00 0.00 0.00 0.00 0.00 0.00 0.00 0.00 0.00 0.00 0.00 0.00 0.00 0.00 0.00 0.00 0.00 0.00 0.00 0.00 0.00 0.00 0.00
0.01 0.01 0.00 0.07 0.04 0.03 0.01 0.00 0.00 0.00 0.00 0.00 0.00 0.00 0.00 0.00 0.00 0.00 0.00 0.00 0.00 0.00 0.00 0.00 0.00 0.00 0.00 0.00 0.00 0.00 0.00 0.00 0.00 0.00 0.00 0.00 0.00 0.00 0.00 0.00 0.00 0.00 0.00
0.01 0.01 0.00 0.00 0.01 0.01 0.01 0.00 0.00 0.00 0.00 0.00 0.00 0.00 0.01 0.01 0.00 0.00 0.00 0.00 0.00 0.00 0.00 0.00 0.00 0.00 0.00 0.00 0.00 0.00 0.00 0.00 0.00 0.01 0.00 0.00 0.00 0.00 0.00 0.00 0.00 0.00 0.00
0.00 0.00 0.00 0.00 0.01 0.01 0.01 0.00 0.00 0.00 0.06 0.01 0.00 0.11 0.16 0.11 0.12 0.03 0.00 0.00 0.00 0.00 0.00 0.00 0.00 0.00 0.00 0.00 0.00 0.00 0.00 0.00 0.00 0.00 0.02 0.01 0.00 0.00 0.00 0.00 0.00 0.00 0.00
0.00 0.00 0.00 0.00 0.01 0.02 0.01 0.01 0.00 0.00 0.14 0.14 0.02 0.01 0.04 0.13 0.18 0.19 0.08 0.01 0.00 0.00 0.00 0.00 0.00 0.00 0.00 0.00 0.00 0.00 0.00 0.00 0.00 0.00 0.00 0.03 0.03 0.02 0.01 0.01 0.01 0.00 0.00
0.00 0.00 0.00 0.00 0.01 0.02 0.02 0.06 0.04 0.06 0.12 0.12 0.03 0.08 0.05 0.10 0.10 0.08 0.08 0.06 0.01 0.00 0.00 0.00 0.01 0.00 0.00 0.00 0.00 0.00 0.00 0.00 0.00 0.00 0.00 0.01 0.04 0.06 0.04 0.02 0.03 0.04 0.06
0.05 0.00 0.00 0.00 0.00 0.02 0.04 0.05 0.08 0.10 0.17 0.16 0.07 0.06 0.05 0.07 0.07 0.08 0.04 0.07 0.09 0.02 0.00 0.00 0.02 0.03 0.01 0.00 0.00 0.00 0.00 0.00 0.00 0.00 0.00 0.00 0.00 0.02 0.02 0.02 0.01 0.02 0.04
0.02 0.00 0.00 0.00 0.00 0.00 0.01 0.05 0.06 0.08 0.12 0.08 0.07 0.04 0.04 0.03 0.03 0.11 0.08 0.03 0.07 0.08 0.03 0.03 0.04 0.05 0.02 0.00 0.00 0.00 0.00 0.00 0.00 0.00 0.00 0.00 0.00 0.00 0.00 0.00 0.00 0.01 0.01
0.00 0.00 0.00 0.00 0.00 0.00 0.00 0.00 0.02 0.03 0.05 0.06 0.07 0.07 0.05 0.04 0.04 0.10 0.08 0.05 0.03 0.02 0.03 0.02 0.01 0.00 0.00 0.00 0.00 0.00 0.00 0.00 0.00 0.00 0.00 0.00 0.00 0.00 0.00 0.00 0.00 0.00 0.00
0.00 0.00 0.00 0.00 0.00 0.00 0.00 0.01 0.02 0.02 0.03 0.03 0.04 0.06 0.06 0.04 0.06 0.05 0.08 0.06 0.06 0.01 0.01 0.00 0.00 0.00 0.00 0.00 0.00 0.00 0.00 0.00 0.00 0.00 0.00 0.00 0.00 0.00 0.00 0.00 0.00 0.00 0.00
0.00 0.00 0.00 0.00 0.00 0.00 0.01 0.02 0.02 0.02 0.03 0.04 0.05 0.06 0.07 0.06 0.07 0.07 0.07 0.07 0.08 0.04 0.03 0.00 0.00 0.00 0.00 0.01 0.00 0.00 0.00 0.00 0.00 0.00 0.00 0.00 0.00 0.00 0.00 0.01 0.01 0.00 0.00
0.00 0.00 0.00 0.00 0.00 0.00 0.00 0.01 0.01 0.01 0.01 0.02 0.03 0.04 0.03 0.04 0.07 0.08 0.10 0.10 0.08 0.09 0.11 0.07 0.04 0.04 0.03 0.03 0.01 0.00 0.00 0.00 0.00 0.02 0.03 0.04 0.04 0.03 0.03 0.03 0.04 0.02 0.00
0.00 0.00 0.00 0.00 0.00 0.00 0.00 0.00 0.00 0.00 0.00 0.00 0.01 0.02 0.02 0.03 0.06 0.08 0.16 0.23 0.23 0.20 0.28 0.25 0.15 0.12 0.09 0.07 0.05 0.03 0.03 0.02 0.02 0.05 0.08 0.08 0.09 0.07 0.07 0.06 0.06 0.03 0.01
0.00 0.00 0.00 0.00 0.00 0.00 0.00 0.00 0.00 0.00 0.00 0.00 0.01 0.02 0.02 0.04 0.06 0.07 0.11 0.16 0.16 0.20 0.24 0.24 0.16 0.10 0.08 0.06 0.06 0.07 0.06 0.04 0.02 0.05 0.06 0.08 0.09 0.09 0.10 0.09 0.07 0.05 0.03
0.00 0.00 0.00 0.00 0.00 0.00 0.00 0.00 0.00 0.00 0.00 0.00 0.00 0.01 0.03 0.07 0.13 0.21 0.25 0.23 0.21 0.21 0.21 0.19 0.17 0.13 0.12 0.08 0.08 0.09 0.07 0.07 0.07 0.07 0.09 0.10 0.12 0.12 0.10 0.07 0.06 0.03 0.02
0.00 0.00 0.00 0.00 0.00 0.00 0.00 0.00 0.00 0.00 0.00 0.00 0.01 0.04 0.08 0.13 0.16 0.19 0.22 0.19 0.17 0.18 0.20 0.21 0.20 0.14 0.14 0.10 0.08 0.07 0.10 0.11 0.15 0.19 0.14 0.11 0.09 0.08 0.08 0.10 0.08 0.06 0.04
0.00 0.00 0.00 0.00 0.00 0.00 0.00 0.00 0.00 0.00 0.00 0.00 0.00 0.02 0.03 0.04 0.06 0.10 0.15 0.18 0.17 0.17 0.18 0.20 0.23 0.23 0.17 0.17 0.18 0.23 0.28 0.33 0.34 0.28 0.24 0.19 0.14 0.13 0.12 0.11 0.09 0.09 0.08
0.03 0.01 0.00 0.00 0.00 0.00 0.00 0.00 0.00 0.00 0.00 0.00 0.00 0.01 0.02 0.05 0.08 0.08 0.16 0.21 0.29 0.42 0.46 0.42 0.45 0.43 0.36 0.34 0.31 0.33 0.36 0.36 0.37 0.31 0.23 0.20 0.15 0.10 0.07 0.08 0.08 0.05 0.02
0.04 0.02 0.01 0.01 0.01 0.00 0.00 0.01 0.01 0.01 0.00 0.00 0.01 0.02 0.03 0.06 0.13 0.18 0.21 0.36 0.48 0.59 0.62 0.61 0.63 0.69 0.67 0.60 0.53 0.47 0.41 0.34 0.29 0.23 0.16 0.13 0.12 0.10 0.08 0.05 0.04 0.02 0.01
0.04 0.02 0.03 0.02 0.01 0.01 0.03 0.04 0.06 0.03 0.02 0.02 0.02 0.05 0.08 0.07 0.25 0.21 0.13 0.22 0.36 0.44 0.55 0.53 0.48 0.52 0.56 0.47 0.37 0.28 0.26 0.22 0.20 0.18 0.13 0.10 0.08 0.08 0.06 0.03 0.02 0.01 0.00
0.02 0.04 0.05 0.06 0.07 0.05 0.09 0.09 0.09 0.04 0.10 0.10 0.10 0.13 0.27 0.17 0.31 0.21 0.12 0.08 0.17 0.25 0.26 0.32 0.33 0.32 0.29 0.26 0.25 0.20 0.18 0.18 0.18 0.17 0.09 0.05 0.03 0.02 0.02 0.01 0.00 0.00 0.00

GFSMA_prec_precacc12_087.txt.gz
Total_Precipitation_Accumulation
0.18 0.14 0.11 0.01 0.00 0.00 0.00 0.00 0.00 0.00 0.00 0.00 0.00 0.00 0.00 0.00 0.00 0.00 0.00 0.00 0.00 0.00 0.00 0.00 0.00 0.00 0.00 0.00 0.00 0.00 0.00 0.00 0.00 0.00 0.00 0.00 0.00 0.00 0.00 0.00 0.00 0.00 0.00
0.16 0.04 0.04 0.00 0.00 0.00 0.00 0.00 0.00 0.00 0.00 0.00 0.00 0.00 0.00 0.00 0.00 0.00 0.00 0.00 0.00 0.00 0.00 0.00 0.00 0.00 0.00 0.00 0.00 0.00 0.00 0.00 0.00 0.00 0.00 0.00 0.00 0.00 0.00 0.00 0.00 0.00 0.00
0.19 0.03 0.02 0.01 0.00 0.00 0.00 0.00 0.00 0.00 0.00 0.00 0.00 0.00 0.00 0.00 0.00 0.00 0.00 0.00 0.00 0.00 0.00 0.00 0.00 0.00 0.00 0.00 0.00 0.00 0.00 0.00 0.00 0.00 0.00 0.00 0.00 0.00 0.00 0.00 0.00 0.00 0.00
0.14 0.06 0.02 0.00 0.00 0.00 0.00 0.00 0.00 0.00 0.00 0.00 0.00 0.00 0.00 0.00 0.00 0.00 0.00 0.00 0.00 0.00 0.00 0.00 0.00 0.00 0.00 0.00 0.00 0.00 0.00 0.00 0.00 0.00 0.00 0.00 0.00 0.00 0.00 0.00 0.00 0.00 0.00
0.13 0.05 0.04 0.02 0.03 0.01 0.00 0.00 0.00 0.00 0.00 0.00 0.00 0.00 0.00 0.00 0.00 0.00 0.00 0.00 0.00 0.00 0.00 0.00 0.00 0.00 0.00 0.00 0.00 0.00 0.00 0.00 0.00 0.00 0.00 0.00 0.00 0.00 0.00 0.00 0.00 0.00 0.00
0.12 0.04 0.05 0.10 0.10 0.05 0.01 0.00 0.00 0.00 0.00 0.00 0.00 0.00 0.00 0.00 0.00 0.00 0.00 0.00 0.00 0.00 0.00 0.00 0.00 0.00 0.00 0.00 0.00 0.00 0.00 0.00 0.00 0.00 0.00 0.00 0.00 0.00 0.00 0.00 0.00 0.00 0.00
0.08 0.04 0.03 0.08 0.04 0.03 0.01 0.00 0.00 0.00 0.00 0.00 0.00 0.00 0.00 0.00 0.00 0.00 0.00 0.00 0.00 0.00 0.00 0.00 0.00 0.00 0.00 0.00 0.00 0.00 0.00 0.00 0.00 0.00 0.00 0.00 0.00 0.00 0.00 0.00 0.00 0.00 0.00
0.07 0.06 0.04 0.01 0.01 0.01 0.00 0.00 0.00 0.00 0.00 0.00 0.00 0.00 0.00 0.00 0.00 0.00 0.00 0.00 0.00 0.00 0.00 0.00 0.00 0.00 0.00 0.00 0.00 0.00 0.00 0.00 0.00 0.01 0.00 0.00 0.00 0.00 0.00 0.00 0.00 0.00 0.00
0.06 0.06 0.09 0.02 0.01 0.01 0.00 0.00 0.00 0.00 0.00 0.00 0.00 0.03 0.04 0.02 0.04 0.01 0.00 0.00 0.00 0.00 0.00 0.00 0.00 0.00 0.00 0.00 0.00 0.00 0.00 0.00 0.00 0.00 0.02 0.01 0.00 0.00 0.00 0.00 0.00 0.00 0.00
0.04 0.03 0.07 0.04 0.01 0.02 0.01 0.00 0.00 0.00 0.04 0.02 0.01 0.01 0.03 0.05 0.06 0.08 0.05 0.01 0.00 0.00 0.00 0.00 0.00 0.00 0.00 0.00 0.00 0.00 0.00 0.00 0.00 0.00 0.01 0.05 0.05 0.01 0.00 0.00 0.00 0.00 0.00
0.01 0.02 0.02 0.02 0.01 0.03 0.01 0.00 0.00 0.03 0.05 0.01 0.00 0.03 0.04 0.09 0.08 0.05 0.06 0.03 0.01 0.00 0.00 0.00 0.00 0.00 0.00 0.00 0.00 0.00 0.00 0.00 0.00 0.00 0.00 0.01 0.05 0.09 0.06 0.03 0.02 0.03 0.04
0.01 0.01 0.01 0.01 0.00 0.01 0.02 0.02 0.04 0.05 0.10 0.07 0.01 0.02 0.01 0.03 0.04 0.06 0.03 0.04 0.04 0.00 0.00 0.00 0.00 0.00 0.00 0.00 0.00 0.00 0.00 0.00 0.00 0.00 0.00 0.00 0.00 0.03 0.04 0.05 0.03 0.02 0.02
0.00 0.00 0.00 0.00 0.00 0.00 0.01 0.03 0.05 0.06 0.06 0.04 0.02 0.01 0.01 0.02 0.01 0.07 0.06 0.03 0.06 0.07 0.02 0.00 0.00 0.00 0.00 0.00 0.00 0.00 0.00 0.00 0.00 0.00 0.00 0.00 0.00 0.00 0.00 0.00 0.01 0.02 0.03
0.00 0.00 0.00 0.00 0.00 0.00 0.00 0.01 0.01 0.01 0.03 0.02 0.01 0.03 0.03 0.02 0.02 0.08 0.07 0.06 0.03 0.01 0.00 0.00 0.00 0.00 0.00 0.00 0.00 0.00 0.00 0.00 0.00 0.00 0.00 0.00 0.00 0.00 0.00 0.00 0.00 0.00 0.01
0.00 0.00 0.00 0.00 0.00 0.00 0.00 0.00 0.01 0.00 0.01 0.02 0.02 0.03 0.03 0.02 0.03 0.03 0.07 0.06 0.06 0.01 0.00 0.00 0.00 0.00 0.00 0.00 0.00 0.00 0.00 0.00 0.00 0.00 0.00 0.00 0.00 0.00 0.00 0.00 0.00 0.00 0.01
0.00 0.00 0.00 0.00 0.00 0.00 0.00 0.00 0.00 0.01 0.01 0.01 0.01 0.03 0.05 0.04 0.05 0.05 0.06 0.07 0.08 0.05 0.03 0.00 0.00 0.00 0.00 0.01 0.00 0.00 0.00 0.00 0.00 0.00 0.00 0.00 0.00 0.00 0.01 0.01 0.03 0.05 0.06
0.00 0.00 0.00 0.00 0.00 0.00 0.00 0.00 0.00 0.00 0.00 0.00 0.00 0.02 0.02 0.02 0.04 0.06 0.08 0.09 0.07 0.07 0.05 0.01 0.00 0.01 0.03 0.03 0.01 0.00 0.00 0.00 0.00 0.02 0.03 0.04 0.05 0.05 0.05 0.06 0.07 0.08 0.09
0.00 0.00 0.00 0.00 0.00 0.00 0.00 0.00 0.00 0.00 0.00 0.00 0.00 0.00 0.01 0.01 0.02 0.04 0.05 0.03 0.03 0.02 0.04 0.06 0.04 0.04 0.08 0.07 0.05 0.03 0.03 0.02 0.02 0.05 0.09 0.09 0.10 0.09 0.09 0.08 0.09 0.08 0.06
0.00 0.00 0.00 0.00 0.00 0.00 0.00 0.00 0.00 0.00 0.00 0.00 0.00 0.00 0.00 0.02 0.02 0.01 0.02 0.03 0.02 0.04 0.05 0.08 0.07 0.04 0.05 0.06 0.06 0.07 0.06 0.04 0.02 0.05 0.06 0.09 0.10 0.12 0.14 0.14 0.13 0.11 0.08
0.00 0.00 0.00 0.00 0.00 0.00 0.00 0.00 0.00 0.00 0.00 0.00 0.00 0.00 0.01 0.02 0.02 0.03 0.06 0.07 0.09 0.12 0.12 0.10 0.09 0.10 0.10 0.07 0.08 0.09 0.07 0.07 0.07 0.07 0.10 0.11 0.14 0.15 0.14 0.12 0.10 0.08 0.05
0.00 0.00 0.00 0.00 0.00 0.00 0.00 0.00 0.00 0.00 0.00 0.00 0.00 0.00 0.00 0.01 0.03 0.04 0.07 0.08 0.11 0.13 0.15 0.15 0.13 0.12 0.12 0.09 0.08 0.07 0.10 0.11 0.15 0.19 0.15 0.12 0.10 0.11 0.14 0.18 0.15 0.12 0.08
0.01 0.00 0.00 0.00 0.00 0.00 0.00 0.00 0.00 0.00 0.00 0.00 0.00 0.00 0.00 0.00 0.01 0.03 0.06 0.09 0.10 0.09 0.11 0.16 0.21 0.20 0.16 0.17 0.18 0.23 0.29 0.35 0.37 0.31 0.27 0.22 0.16 0.16 0.18 0.22 0.23 0.19 0.15
0.07 0.03 0.03 0.02 0.02 0.03 0.03 0.02 0.01 0.00 0.00 0.00 0.00 0.00 0.00 0.00 0.01 0.04 0.09 0.16 0.23 0.34 0.40 0.38 0.42 0.40 0.34 0.33 0.31 0.34 0.36 0.38 0.40 0.36 0.32 0.29 0.21 0.16 0.13 0.16 0.22 0.14 0.10
0.07 0.06 0.04 0.05 0.03 0.01 0.05 0.11 0.12 0.04 0.00 0.00 0.00 0.00 0.00 0.00 0.03 0.08 0.15 0.29 0.40 0.46 0.50 0.54 0.56 0.59 0.59 0.59 0.56 0.52 0.47 0.43 0.41 0.34 0.25 0.19 0.17 0.16 0.16 0.14 0.18 0.12 0.05
0.04 0.03 0.04 0.07 0.04 0.02 0.07 0.08 0.12 0.05 0.03 0.03 0.03 0.01 0.02 0.01 0.09 0.08 0.04 0.09 0.18 0.23 0.34 0.38 0.39 0.49 0.56 0.50 0.42 0.33 0.35 0.33 0.35 0.31 0.22 0.16 0.15 0.16 0.17 0.15 0.13 0.08 0.03
0.02 0.04 0.05 0.09 0.11 0.06 0.10 0.09 0.07 0.05 0.09 0.08 0.08 0.09 0.19 0.11 0.17 0.12 0.07 0.03 0.09 0.15 0.16 0.23 0.29 0.34 0.35 0.35 0.39 0.32 0.31 0.37 0.37 0.34 0.23 0.17 0.15 0.13 0.11 0.07 0.04 0.01 0.01

GFSMA_prec_precacc12_090.txt.gz
Total_Precipitation_Accumulation
0.17 0.17 0.09 0.10 0.40 0.05 0.00 0.00 0.00 0.00 0.00 0.00 0.00 0.00 0.00 0.00 0.00 0.00 0.00 0.00 0.00 0.00 0.00 0.00 0.00 0.00 0.00 0.00 0.00 0.00 0.00 0.00 0.00 0.00 0.00 0.00 0.00 0.00 0.00 0.00 0.00 0.00 0.00
0.26 0.22 0.13 0.06 0.23 0.05 0.00 0.00 0.00 0.00 0.00 0.00 0.00 0.00 0.00 0.00 0.00 0.00 0.00 0.00 0.00 0.00 0.00 0.00 0.00 0.00 0.00 0.00 0.00 0.00 0.00 0.00 0.00 0.00 0.00 0.00 0.00 0.00 0.00 0.00 0.00 0.00 0.00
0.38 0.19 0.13 0.05 0.06 0.01 0.00 0.00 0.00 0.00 0.00 0.00 0.00 0.00 0.00 0.00 0.00 0.00 0.00 0.00 0.00 0.00 0.00 0.00 0.00 0.00 0.00 0.00 0.00 0.00 0.00 0.00 0.00 0.00 0.00 0.00 0.00 0.00 0.00 0.00 0.00 0.00 0.00
0.45 0.21 0.09 0.03 0.01 0.00 0.00 0.00 0.00 0.00 0.00 0.00 0.00 0.00 0.00 0.00 0.00 0.00 0.00 0.00 0.00 0.00 0.00 0.00 0.00 0.00 0.00 0.00 0.00 0.00 0.00 0.00 0.00 0.00 0.00 0.00 0.00 0.00 0.00 0.00 0.00 0.00 0.00
0.38 0.12 0.04 0.03 0.02 0.00 0.00 0.00 0.00 0.00 0.00 0.00 0.00 0.00 0.00 0.00 0.00 0.00 0.00 0.00 0.00 0.00 0.00 0.00 0.00 0.00 0.00 0.00 0.00 0.00 0.00 0.00 0.00 0.00 0.00 0.00 0.00 0.00 0.00 0.00 0.00 0.00 0.00
0.33 0.10 0.04 0.09 0.07 0.03 0.01 0.00 0.00 0.00 0.00 0.00 0.00 0.00 0.00 0.00 0.00 0.00 0.00 0.00 0.00 0.00 0.00 0.00 0.00 0.00 0.00 0.00 0.00 0.00 0.00 0.00 0.00 0.00 0.00 0.00 0.00 0.00 0.00 0.00 0.00 0.00 0.00
0.34 0.12 0.06 0.09 0.03 0.02 0.01 0.00 0.00 0.00 0.00 0.00 0.00 0.00 0.00 0.00 0.00 0.00 0.00 0.00 0.00 0.00 0.00 0.00 0.00 0.00 0.00 0.00 0.00 0.00 0.00 0.00 0.00 0.00 0.00 0.00 0.00 0.00 0.00 0.00 0.00 0.00 0.00
0.27 0.18 0.10 0.04 0.01 0.01 0.00 0.00 0.00 0.00 0.00 0.00 0.00 0.00 0.00 0.00 0.00 0.00 0.00 0.00 0.00 0.00 0.00 0.00 0.00 0.00 0.00 0.00 0.00 0.00 0.00 0.00 0.00 0.00 0.00 0.00 0.00 0.00 0.00 0.00 0.00 0.00 0.00
0.18 0.23 0.18 0.10 0.03 0.02 0.00 0.00 0.00 0.00 0.00 0.00 0.00 0.00 0.00 0.00 0.00 0.00 0.00 0.00 0.00 0.00 0.00 0.00 0.00 0.00 0.00 0.00 0.00 0.00 0.00 0.00 0.00 0.00 0.02 0.01 0.00 0.00 0.00 0.00 0.00 0.00 0.00
0.16 0.17 0.21 0.14 0.05 0.03 0.01 0.00 0.00 0.00 0.00 0.00 0.00 0.00 0.00 0.02 0.00 0.00 0.00 0.00 0.00 0.00 0.00 0.00 0.00 0.00 0.00 0.00 0.00 0.00 0.00 0.00 0.00 0.00 0.01 0.06 0.05 0.01 0.00 0.00 0.00 0.00 0.00
0.08 0.15 0.11 0.13 0.05 0.04 0.01 0.00 0.00 0.00 0.00 0.00 0.00 0.00 0.00 0.03 0.02 0.00 0.00 0.00 0.00 0.00 0.00 0.00 0.00 0.00 0.00 0.00 0.00 0.00 0.00 0.00 0.00 0.00 0.00 0.01 0.06 0.10 0.07 0.02 0.01 0.01 0.02
0.06 0.09 0.12 0.07 0.05 0.02 0.03 0.01 0.01 0.02 0.04 0.02 0.00 0.00 0.00 0.00 0.01 0.01 0.00 0.00 0.00 0.00 0.00 0.00 0.00 0.00 0.00 0.00 0.00 0.00 0.00 0.00 0.00 0.00 0.00 0.00 0.00 0.03 0.06 0.06 0.04 0.02 0.02
0.01 0.01 0.05 0.04 0.03 0.01 0.01 0.03 0.04 0.04 0.04 0.02 0.00 0.00 0.00 0.00 0.00 0.01 0.01 0.00 0.01 0.01 0.00 0.00 0.00 0.00 0.00 0.00 0.00 0.00 0.00 0.00 0.00 0.00 0.00 0.00 0.00 0.00 0.00 0.01 0.02 0.04 0.05
0.00 0.00 0.00 0.01 0.01 0.01 0.00 0.01 0.02 0.02 0.03 0.02 0.01 0.00 0.00 0.00 0.00 0.02 0.02 0.03 0.02 0.01 0.00 0.00 0.00 0.00 0.00 0.00 0.00 0.00 0.00 0.00 0.00 0.00 0.00 0.00 0.00 0.00 0.00 0.00 0.00 0.00 0.01
0.00 0.00 0.00 0.00 0.00 0.00 0.00 0.00 0.01 0.01 0.02 0.02 0.02 0.01 0.01 0.00 0.00 0.00 0.03 0.03 0.04 0.01 0.00 0.00 0.00 0.00 0.00 0.00 0.00 0.00 0.00 0.00 0.00 0.00 0.00 0.00 0.00 0.00 0.00 0.00 0.00 0.00 0.01
0.00 0.00 0.00 0.00 0.00 0.00 0.00 0.00 0.00 0.01 0.02 0.02 0.02 0.02 0.03 0.02 0.02 0.01 0.02 0.02 0.03 0.03 0.03 0.00 0.00 0.00 0.00 0.00 0.00 0.00 0.00 0.00 0.00 0.00 0.00 0.00 0.00 0.00 0.01 0.01 0.03 0.05 0.06
0.00 0.00 0.00 0.00 0.00 0.00 0.00 0.00 0.00 0.00 0.00 0.00 0.00 0.01 0.00 0.01 0.02 0.02 0.03 0.02 0.03 0.05 0.05 0.02 0.00 0.00 0.00 0.00 0.00 0.00 0.00 0.00 0.00 0.02 0.03 0.04 0.05 0.05 0.05 0.06 0.07 0.08 0.09
0.00 0.00 0.00 0.00 0.00 0.00 0.00 0.00 0.00 0.00 0.00 0.00 0.00 0.00 0.00 0.00 0.00 0.01 0.01 0.01 0.01 0.02 0.05 0.07 0.03 0.02 0.02 0.02 0.03 0.02 0.02 0.01 0.02 0.05 0.09 0.09 0.10 0.09 0.09 0.09 0.09 0.08 0.07
0.00 0.00 0.00 0.00 0.00 0.00 0.00 0.00 0.00 0.00 0.00 0.00 0.00 0.00 0.00 0.00 0.00 0.00 0.01 0.01 0.01 0.01 0.02 0.02 0.02 0.02 0.02 0.01 0.02 0.03 0.03 0.03 0.02 0.05 0.06 0.09 0.11 0.13 0.15 0.15 0.15 0.13 0.11
0.00 0.00 0.00 0.00 0.00 0.00 0.00 0.00 0.00 0.00 0.00 0.00 0.00 0.00 0.00 0.00 0.00 0.00 0.01 0.02 0.04 0.05 0.05 0.04 0.04 0.04 0.04 0.02 0.03 0.06 0.05 0.05 0.05 0.07 0.10 0.11 0.15 0.16 0.14 0.12 0.12 0.11 0.10
0.00 0.00 0.00 0.00 0.00 0.00 0.00 0.00 0.00 0.00 0.00 0.00 0.00 0.00 0.00 0.00 0.00 0.00 0.02 0.04 0.06 0.07 0.07 0.11 0.09 0.08 0.08 0.04 0.03 0.04 0.07 0.07 0.12 0.17 0.15 0.12 0.11 0.13 0.15 0.21 0.20 0.17 0.14
0.02 0.01 0.01 0.01 0.00 0.00 0.00 0.00 0.00 0.00 0.00 0.00 0.00 0.00 0.00 0.00 0.00 0.00 0.03 0.05 0.06 0.04 0.03 0.04 0.07 0.10 0.10 0.11 0.11 0.15 0.19 0.24 0.31 0.29 0.26 0.22 0.16 0.17 0.20 0.25 0.32 0.32 0.26
0.08 0.04 0.04 0.02 0.02 0.03 0.08 0.08 0.06 0.01 0.00 0.00 0.00 0.00 0.00 0.00 0.00 0.00 0.01 0.02 0.03 0.03 0.05 0.11 0.21 0.24 0.22 0.21 0.18 0.20 0.25 0.28 0.31 0.33 0.31 0.30 0.23 0.19 0.17 0.21 0.30 0.23 0.18
0.09 0.08 0.06 0.06 0.05 0.03 0.12 0.20 0.19 0.08 0.01 0.01 0.00 0.00 0.00 0.00 0.00 0.00 0.00 0.00 0.01 0.05 0.14 0.20 0.23 0.27 0.31 0.32 0.30 0.29 0.28 0.31 0.37 0.33 0.25 0.22 0.20 0.21 0.21 0.20 0.30 0.23 0.15
0.04 0.03 0.06 0.09 0.05 0.05 0.17 0.12 0.15 0.06 0.05 0.05 0.05 0.03 0.02 0.01 0.02 0.02 0.01 0.00 0.03 0.08 0.16 0.19 0.19 0.26 0.32 0.31 0.27 0.25 0.31 0.37 0.42 0.37 0.29 0.23 0.23 0.26 0.28 0.27 0.28 0.26 0.16
0.02 0.04 0.05 0.09 0.13 0.07 0.18 0.12 0.08 0.07 0.12 0.09 0.07 0.06 0.14 0.12 0.10 0.07 0.05 0.03 0.10 0.15 0.14 0.18 0.22 0.23 0.23 0.26 0.34 0.28 0.28 0.41 0.57 0.58 0.51 0.39 0.35 0.32 0.32 0.32 0.29 0.23 0.19

GFSMA_prec_precacc12_093.txt.gz
Total_Precipitation_Accumulation
0.16 0.16 0.09 0.12 0.50 0.53 0.49 0.09 0.00 0.00 0.00 0.00 0.00 0.00 0.00 0.00 0.00 0.00 0.00 0.00 0.00 0.01 0.01 0.01 0.01 0.01 0.01 0.01 0.00 0.00 0.00 0.00 0.00 0.00 0.00 0.00 0.00 0.00 0.00 0.00 0.00 0.00 0.00
0.27 0.26 0.17 0.07 0.30 0.33 0.30 0.10 0.01 0.00 0.00 0.00 0.00 0.00 0.00 0.00 0.00 0.00 0.00 0.00 0.00 0.01 0.01 0.01 0.01 0.01 0.01 0.01 0.00 0.00 0.00 0.00 0.00 0.00 0.00 0.00 0.00 0.00 0.00 0.00 0.00 0.00 0.00
0.39 0.27 0.24 0.09 0.16 0.17 0.12 0.07 0.01 0.00 0.00 0.00 0.00 0.00 0.00 0.00 0.00 0.00 0.00 0.00 0.00 0.00 0.01 0.01 0.01 0.01 0.00 0.00 0.00 0.00 0.00 0.00 0.00 0.00 0.00 0.00 0.00 0.00 0.00 0.00 0.00 0.00 0.00
0.48 0.34 0.23 0.13 0.15 0.14 0.06 0.02 0.00 0.00 0.00 0.00 0.00 0.00 0.00 0.00 0.00 0.00 0.00 0.00 0.00 0.00 0.00 0.01 0.01 0.00 0.00 0.00 0.00 0.00 0.00 0.00 0.00 0.00 0.00 0.00 0.00 0.00 0.00 0.00 0.00 0.00 0.00
0.49 0.32 0.23 0.09 0.15 0.12 0.04 0.01 0.00 0.00 0.00 0.00 0.00 0.00 0.00 0.00 0.00 0.00 0.00 0.00 0.00 0.00 0.00 0.00 0.00 0.00 0.00 0.00 0.00 0.00 0.00 0.00 0.00 0.00 0.00 0.00 0.00 0.00 0.00 0.00 0.00 0.00 0.00
0.58 0.29 0.22 0.07 0.11 0.08 0.02 0.00 0.00 0.00 0.00 0.00 0.00 0.00 0.00 0.00 0.00 0.00 0.00 0.00 0.00 0.00 0.00 0.00 0.00 0.00 0.00 0.00 0.00 0.00 0.00 0.00 0.00 0.00 0.00 0.00 0.00 0.00 0.00 0.00 0.00 0.00 0.00
0.67 0.25 0.12 0.07 0.04 0.02 0.00 0.00 0.00 0.00 0.00 0.00 0.00 0.00 0.00 0.00 0.00 0.00 0.00 0.00 0.00 0.00 0.00 0.00 0.00 0.00 0.00 0.00 0.00 0.00 0.00 0.00 0.00 0.00 0.00 0.00 0.00 0.00 0.00 0.00 0.00 0.00 0.00
0.45 0.29 0.12 0.05 0.01 0.00 0.00 0.00 0.00 0.00 0.00 0.00 0.00 0.00 0.00 0.00 0.00 0.00 0.00 0.00 0.00 0.00 0.00 0.00 0.00 0.00 0.00 0.00 0.00 0.00 0.00 0.00 0.00 0.00 0.00 0.00 0.00 0.00 0.00 0.00 0.00 0.00 0.00
0.30 0.36 0.21 0.11 0.02 0.01 0.00 0.00 0.00 0.00 0.00 0.00 0.00 0.00 0.00 0.00 0.00 0.00 0.00 0.00 0.00 0.00 0.00 0.00 0.00 0.00 0.00 0.00 0.00 0.00 0.00 0.00 0.00 0.00 0.01 0.00 0.00 0.00 0.00 0.00 0.00 0.00 0.00
0.26 0.32 0.29 0.18 0.06 0.03 0.01 0.00 0.00 0.00 0.00 0.00 0.00 0.00 0.00 0.00 0.00 0.00 0.00 0.00 0.00 0.00 0.00 0.00 0.00 0.00 0.00 0.00 0.00 0.00 0.00 0.00 0.00 0.00 0.01 0.05 0.05 0.01 0.00 0.00 0.00 0.00 0.00
0.22 0.31 0.32 0.24 0.12 0.06 0.02 0.01 0.00 0.00 0.00 0.00 0.00 0.00 0.00 0.00 0.00 0.00 0.00 0.00 0.00 0.00 0.00 0.00 0.00 0.00 0.00 0.00 0.00 0.00 0.00 0.00 0.00 0.00 0.00 0.00 0.05 0.10 0.07 0.02 0.01 0.01 0.01
0.08 0.18 0.37 0.28 0.16 0.09 0.07 0.03 0.01 0.00 0.00 0.00 0.00 0.00 0.00 0.00 0.00 0.00 0.00 0.00 0.00 0.00 0.00 0.00 0.00 0.00 0.00 0.00 0.00 0.00 0.00 0.00 0.00 0.00 0.00 0.00 0.00 0.03 0.06 0.07 0.04 0.02 0.02
0.02 0.02 0.09 0.18 0.15 0.08 0.04 0.05 0.02 0.01 0.00 0.00 0.00 0.00 0.00 0.00 0.00 0.00 0.00 0.00 0.00 0.00 0.00 0.00 0.00 0.00 0.00 0.00 0.00 0.00 0.00 0.00 0.00 0.00 0.00 0.00 0.00 0.00 0.00 0.01 0.02 0.04 0.05
0.01 0.02 0.01 0.05 0.07 0.03 0.01 0.02 0.02 0.01 0.02 0.01 0.00 0.00 0.00 0.00 0.00 0.00 0.00 0.01 0.01 0.00 0.00 0.00 0.00 0.00 0.00 0.00 0.00 0.00 0.00 0.00 0.00 0.00 0.00 0.00 0.00 0.00 0.00 0.00 0.00 0.00 0.01
0.00 0.02 0.02 0.02 0.04 0.03 0.01 0.01 0.01 0.01 0.02 0.02 0.02 0.01 0.01 0.00 0.00 0.00 0.01 0.01 0.03 0.01 0.00 0.00 0.00 0.00 0.00 0.00 0.00 0.00 0.00 0.00 0.00 0.00 0.00 0.00 0.00 0.00 0.00 0.00 0.00 0.00 0.01
0.00 0.00 0.02 0.03 0.01 0.01 0.00 0.01 0.00 0.01 0.02 0.02 0.02 0.02 0.03 0.02 0.02 0.02 0.01 0.01 0.01 0.03 0.02 0.00 0.00 0.00 0.00 0.01 0.00 0.00 0.00 0.00 0.00 0.00 0.00 0.00 0.00 0.00 0.01 0.01 0.03 0.05 0.06
0.00 0.00 0.00 0.00 0.00 0.00 0.00 0.00 0.00 0.00 0.00 0.00 0.00 0.01 0.00 0.01 0.02 0.03 0.04 0.04 0.03 0.03 0.05 0.02 0.00 0.00 0.00 0.00 0.00 0.00 0.00 0.00 0.00 0.02 0.03 0.04 0.05 0.05 0.05 0.06 0.07 0.08 0.09
0.00 0.00 0.00 0.00 0.00 0.00 0.00 0.00 0.00 0.00 0.00 0.00 0.00 0.00 0.00 0.01 0.01 0.01 0.01 0.01 0.01 0.01 0.02 0.04 0.02 0.02 0.02 0.02 0.01 0.01 0.00 0.01 0.01 0.04 0.07 0.07 0.08 0.09 0.09 0.09 0.09 0.08 0.07
0.00 0.00 0.00 0.00 0.00 0.00 0.00 0.00 0.00 0.00 0.00 0.00 0.00 0.00 0.00 0.00 0.00 0.00 0.00 0.00 0.00 0.01 0.01 0.01 0.01 0.01 0.00 0.00 0.00 0.00 0.01 0.01 0.00 0.03 0.04 0.07 0.08 0.11 0.14 0.15 0.15 0.13 0.11
0.00 0.00 0.00 0.00 0.00 0.00 0.00 0.00 0.00 0.00 0.00 0.00 0.00 0.00 0.00 0.00 0.00 0.00 0.00 0.00 0.00 0.01 0.01 0.02 0.01 0.02 0.02 0.01 0.01 0.02 0.03 0.03 0.04 0.05 0.06 0.07 0.09 0.12 0.13 0.12 0.12 0.11 0.10
0.00 0.00 0.00 0.00 0.00 0.00 0.00 0.00 0.00 0.00 0.00 0.00 0.00 0.00 0.00 0.00 0.00 0.00 0.00 0.00 0.00 0.00 0.01 0.02 0.03 0.03 0.03 0.01 0.01 0.02 0.04 0.04 0.07 0.09 0.08 0.08 0.09 0.12 0.15 0.21 0.19 0.17 0.15
0.02 0.01 0.01 0.01 0.00 0.00 0.01 0.00 0.00 0.00 0.00 0.00 0.00 0.00 0.00 0.00 0.00 0.00 0.00 0.00 0.00 0.00 0.01 0.01 0.01 0.01 0.00 0.00 0.00 0.02 0.05 0.10 0.15 0.14 0.12 0.14 0.13 0.14 0.18 0.24 0.32 0.32 0.27
0.11 0.08 0.07 0.06 0.04 0.07 0.13 0.10 0.08 0.02 0.01 0.00 0.00 0.00 0.00 0.00 0.00 0.00 0.00 0.00 0.00 0.00 0.01 0.02 0.01 0.02 0.01 0.01 0.02 0.04 0.05 0.08 0.12 0.13 0.12 0.14 0.13 0.14 0.16 0.21 0.32 0.24 0.20
0.11 0.11 0.08 0.10 0.09 0.12 0.18 0.22 0.20 0.09 0.02 0.02 0.01 0.00 0.00 0.00 0.01 0.01 0.01 0.00 0.00 0.00 0.02 0.03 0.05 0.08 0.11 0.16 0.19 0.18 0.17 0.19 0.22 0.19 0.16 0.16 0.18 0.20 0.22 0.23 0.42 0.30 0.21
0.04 0.04 0.07 0.11 0.07 0.08 0.22 0.13 0.15 0.06 0.07 0.06 0.06 0.09 0.11 0.05 0.05 0.05 0.02 0.02 0.01 0.01 0.06 0.12 0.21 0.24 0.27 0.25 0.23 0.19 0.24 0.32 0.38 0.36 0.31 0.25 0.26 0.32 0.33 0.34 0.41 0.41 0.26
0.02 0.04 0.05 0.09 0.14 0.08 0.20 0.12 0.08 0.06 0.11 0.09 0.09 0.12 0.27 0.16 0.09 0.07 0.06 0.07 0.12 0.14 0.16 0.18 0.26 0.31 0.32 0.37 0.48 0.37 0.36 0.57 0.84 0.78 0.65 0.51 0.47 0.47 0.49 0.52 0.47 0.43 0.38

GFSMA_prec_precacc12_096.txt.gz
Total_Precipitation_Accumulation
0.16 0.16 0.11 0.21 0.58 0.56 0.64 0.31 0.18 0.12 0.05 0.02 0.00 0.00 0.00 0.00 0.00 0.00 0.00 0.00 0.01 0.01 0.01 0.02 0.02 0.02 0.02 0.01 0.00 0.00 0.00 0.00 0.00 0.00 0.00 0.00 0.00 0.00 0.00 0.00 0.00 0.00 0.00
0.28 0.29 0.21 0.17 0.34 0.34 0.50 0.47 0.16 0.09 0.04 0.00 0.00 0.00 0.00 0.00 0.00 0.00 0.00 0.00 0.01 0.01 0.02 0.02 0.02 0.01 0.01 0.01 0.00 0.00 0.00 0.00 0.00 0.00 0.00 0.00 0.00 0.00 0.00 0.00 0.00 0.00 0.00
0.41 0.33 0.32 0.17 0.18 0.19 0.23 0.34 0.13 0.07 0.02 0.00 0.00 0.00 0.00 0.00 0.00 0.00 0.00 0.00 0.00 0.01 0.02 0.02 0.02 0.01 0.01 0.00 0.00 0.00 0.00 0.00 0.00 0.00 0.00 0.00 0.00 0.00 0.00 0.00 0.00 0.00 0.00
0.51 0.42 0.32 0.18 0.18 0.16 0.11 0.17 0.05 0.04 0.02 0.01 0.00 0.00 0.00 0.00 0.00 0.00 0.00 0.00 0.00 0.00 0.01 0.02 0.02 0.01 0.01 0.00 0.00 0.00 0.00 0.00 0.00 0.00 0.00 0.00 0.00 0.00 0.00 0.00 0.00 0.00 0.00
0.52 0.40 0.36 0.21 0.20 0.18 0.09 0.08 0.03 0.03 0.01 0.01 0.00 0.00 0.00 0.00 0.00 0.00 0.00 0.00 0.00 0.00 0.00 0.00 0.00 0.00 0.00 0.00 0.00 0.00 0.00 0.00 0.00 0.00 0.00 0.00 0.00 0.00 0.00 0.00 0.00 0.00 0.00
0.67 0.52 0.50 0.23 0.23 0.18 0.16 0.09 0.03 0.03 0.02 0.00 0.00 0.00 0.00 0.00 0.00 0.00 0.00 0.00 0.00 0.00 0.00 0.00 0.00 0.00 0.00 0.00 0.00 0.00 0.00 0.00 0.00 0.00 0.00 0.00 0.00 0.00 0.00 0.00 0.00 0.00 0.00
0.81 0.50 0.41 0.28 0.19 0.13 0.10 0.05 0.01 0.01 0.01 0.00 0.00 0.00 0.00 0.00 0.00 0.00 0.00 0.00 0.00 0.00 0.00 0.00 0.00 0.00 0.00 0.00 0.00 0.00 0.00 0.00 0.00 0.00 0.00 0.00 0.00 0.00 0.00 0.00 0.00 0.00 0.00
0.65 0.51 0.34 0.22 0.15 0.11 0.09 0.04 0.01 0.01 0.00 0.00 0.00 0.00 0.01 0.01 0.00 0.00 0.00 0.00 0.00 0.00 0.00 0.00 0.00 0.00 0.00 0.00 0.00 0.00 0.00 0.00 0.00 0.00 0.00 0.00 0.00 0.00 0.00 0.00 0.00 0.00 0.00
0.50 0.45 0.39 0.22 0.12 0.10 0.04 0.01 0.00 0.00 0.00 0.00 0.01 0.00 0.01 0.01 0.00 0.00 0.00 0.00 0.00 0.00 0.00 0.00 0.00 0.00 0.00 0.00 0.00 0.00 0.00 0.00 0.00 0.00 0.01 0.00 0.00 0.00 0.00 0.00 0.00 0.00 0.00
0.34 0.42 0.38 0.29 0.12 0.09 0.03 0.00 0.00 0.00 0.00 0.00 0.00 0.00 0.00 0.00 0.00 0.00 0.00 0.00 0.00 0.00 0.00 0.00 0.00 0.00 0.00 0.00 0.00 0.00 0.00 0.00 0.00 0.00 0.01 0.04 0.03 0.00 0.00 0.00 0.00 0.00 0.00
0.23 0.39 0.43 0.30 0.15 0.06 0.02 0.00 0.00 0.00 0.00 0.00 0.00 0.00 0.00 0.00 0.00 0.00 0.00 0.00 0.00 0.00 0.00 0.00 0.00 0.00 0.00 0.00 0.00 0.00 0.00 0.00 0.00 0.00 0.00 0.00 0.03 0.06 0.04 0.01 0.01 0.01 0.01
0.10 0.26 0.48 0.36 0.21 0.12 0.07 0.04 0.02 0.01 0.00 0.00 0.00 0.00 0.00 0.00 0.00 0.00 0.00 0.00 0.00 0.00 0.00 0.00 0.00 0.00 0.00 0.00 0.00 0.00 0.00 0.00 0.00 0.00 0.00 0.00 0.00 0.01 0.03 0.05 0.04 0.02 0.01
0.03 0.07 0.17 0.29 0.23 0.15 0.10 0.09 0.05 0.04 0.02 0.01 0.00 0.01 0.00 0.00 0.00 0.00 0.00 0.00 0.00 0.00 0.00 0.00 0.00 0.00 0.00 0.00 0.00 0.00 0.00 0.00 0.00 0.00 0.00 0.00 0.00 0.00 0.00 0.00 0.02 0.03 0.04
0.01 0.02 0.03 0.10 0.14 0.14 0.07 0.06 0.05 0.03 0.02 0.01 0.00 0.00 0.01 0.00 0.00 0.00 0.00 0.01 0.01 0.00 0.00 0.00 0.00 0.00 0.00 0.00 0.00 0.00 0.00 0.00 0.00 0.00 0.00 0.00 0.00 0.00 0.00 0.00 0.00 0.00 0.01
0.00 0.02 0.02 0.04 0.11 0.17 0.12 0.03 0.02 0.01 0.02 0.01 0.01 0.00 0.00 0.00 0.00 0.00 0.01 0.01 0.03 0.03 0.01 0.00 0.00 0.00 0.00 0.00 0.00 0.00 0.00 0.00 0.00 0.00 0.00 0.00 0.00 0.00 0.00 0.00 0.00 0.00 0.01
0.00 0.00 0.03 0.05 0.04 0.07 0.12 0.03 0.01 0.01 0.01 0.01 0.01 0.01 0.02 0.01 0.02 0.01 0.02 0.02 0.03 0.05 0.03 0.00 0.00 0.00 0.00 0.01 0.00 0.00 0.00 0.00 0.00 0.00 0.00 0.00 0.00 0.00 0.00 0.00 0.02 0.04 0.06
0.00 0.00 0.00 0.02 0.04 0.01 0.02 0.01 0.00 0.01 0.00 0.00 0.00 0.01 0.00 0.01 0.02 0.03 0.04 0.05 0.05 0.04 0.07 0.02 0.00 0.00 0.00 0.00 0.00 0.00 0.00 0.00 0.00 0.00 0.00 0.00 0.01 0.02 0.02 0.02 0.03 0.06 0.08
0.00 0.00 0.00 0.00 0.00 0.00 0.00 0.00 0.00 0.00 0.00 0.00 0.00 0.00 0.00 0.01 0.01 0.01 0.01 0.02 0.02 0.02 0.07 0.07 0.01 0.00 0.00 0.00 0.00 0.00 0.00 0.00 0.00 0.00 0.00 0.01 0.01 0.02 0.02 0.02 0.03 0.05 0.06
0.00 0.00 0.01 0.00 0.00 0.00 0.00 0.00 0.00 0.00 0.00 0.00 0.00 0.00 0.00 0.00 0.00 0.01 0.01 0.01 0.01 0.02 0.02 0.02 0.00 0.01 0.01 0.01 0.01 0.00 0.00 0.00 0.00 0.00 0.00 0.00 0.01 0.04 0.05 0.06 0.07 0.08 0.08
0.00 0.00 0.00 0.00 0.00 0.00 0.00 0.00 0.00 0.00 0.00 0.00 0.00 0.00 0.00 0.00 0.00 0.01 0.03 0.03 0.03 0.04 0.04 0.03 0.00 0.00 0.01 0.00 0.02 0.01 0.01 0.00 0.00 0.00 0.00 0.01 0.02 0.04 0.04 0.05 0.06 0.08 0.09
0.00 0.00 0.00 0.00 0.00 0.00 0.00 0.00 0.00 0.00 0.00 0.00 0.00 0.00 0.00 0.00 0.00 0.00 0.01 0.01 0.03 0.05 0.04 0.04 0.02 0.01 0.00 0.00 0.01 0.00 0.01 0.00 0.00 0.00 0.01 0.02 0.02 0.05 0.07 0.12 0.12 0.12 0.12
0.03 0.01 0.01 0.02 0.01 0.01 0.02 0.00 0.00 0.00 0.00 0.00 0.00 0.00 0.00 0.00 0.00 0.00 0.00 0.00 0.01 0.02 0.01 0.01 0.01 0.01 0.00 0.00 0.00 0.00 0.01 0.02 0.03 0.02 0.03 0.03 0.03 0.04 0.09 0.14 0.24 0.24 0.20
0.10 0.09 0.08 0.08 0.09 0.13 0.18 0.11 0.09 0.02 0.01 0.01 0.00 0.00 0.00 0.01 0.01 0.00 0.00 0.00 0.00 0.00 0.02 0.02 0.02 0.02 0.04 0.06 0.05 0.02 0.01 0.02 0.03 0.07 0.10 0.10 0.09 0.10 0.11 0.16 0.28 0.20 0.18
0.08 0.09 0.08 0.11 0.12 0.17 0.22 0.23 0.22 0.09 0.03 0.04 0.06 0.05 0.03 0.02 0.05 0.05 0.02 0.01 0.01 0.03 0.10 0.20 0.29 0.34 0.33 0.22 0.18 0.20 0.22 0.24 0.23 0.26 0.21 0.19 0.21 0.20 0.21 0.25 0.55 0.33 0.23
0.01 0.02 0.04 0.10 0.08 0.10 0.25 0.13 0.15 0.06 0.07 0.08 0.10 0.15 0.15 0.06 0.10 0.07 0.03 0.03 0.01 0.03 0.14 0.18 0.30 0.25 0.20 0.18 0.20 0.25 0.42 0.60 0.64 0.59 0.52 0.46 0.44 0.44 0.43 0.44 0.54 0.57 0.34
0.00 0.00 0.00 0.03 0.10 0.06 0.19 0.10 0.07 0.06 0.10 0.08 0.09 0.14 0.31 0.16 0.09 0.05 0.04 0.07 0.12 0.15 0.21 0.21 0.29 0.32 0.31 0.35 0.46 0.36 0.39 0.67 1.02 1.02 0.92 0.75 0.69 0.70 0.75 0.77 0.68 0.62 0.54

GFSMA_prec_precacc12_099.txt.gz
Total_Precipitation_Accumulation
0.08 0.14 0.14 0.28 0.66 0.61 0.69 0.34 0.19 0.24 0.26 0.25 0.10 0.03 0.00 0.00 0.00 0.00 0.00 0.00 0.02 0.01 0.01 0.03 0.03 0.02 0.02 0.01 0.00 0.00 0.00 0.00 0.00 0.00 0.00 0.00 0.00 0.00 0.00 0.00 0.00 0.00 0.00
0.20 0.31 0.27 0.23 0.42 0.39 0.52 0.47 0.17 0.22 0.25 0.17 0.07 0.00 0.00 0.00 0.00 0.00 0.00 0.00 0.01 0.02 0.03 0.03 0.03 0.02 0.01 0.01 0.00 0.00 0.00 0.00 0.00 0.00 0.00 0.00 0.00 0.00 0.00 0.00 0.00 0.00 0.00
0.36 0.37 0.37 0.25 0.24 0.26 0.24 0.35 0.23 0.29 0.26 0.16 0.02 0.00 0.00 0.00 0.00 0.00 0.00 0.00 0.01 0.01 0.03 0.04 0.03 0.02 0.01 0.01 0.00 0.00 0.00 0.00 0.00 0.00 0.00 0.00 0.00 0.00 0.00 0.00 0.00 0.00 0.00
0.48 0.49 0.38 0.26 0.25 0.21 0.14 0.18 0.11 0.21 0.23 0.09 0.02 0.00 0.00 0.00 0.00 0.00 0.00 0.00 0.00 0.00 0.01 0.03 0.03 0.02 0.01 0.01 0.00 0.00 0.00 0.00 0.00 0.00 0.00 0.00 0.00 0.00 0.00 0.00 0.00 0.00 0.00
0.45 0.48 0.45 0.29 0.25 0.21 0.10 0.09 0.07 0.11 0.16 0.09 0.01 0.00 0.00 0.00 0.00 0.00 0.00 0.00 0.00 0.00 0.00 0.01 0.01 0.01 0.01 0.01 0.00 0.00 0.00 0.00 0.00 0.00 0.00 0.00 0.00 0.00 0.00 0.00 0.00 0.00 0.00
0.58 0.53 0.57 0.37 0.27 0.23 0.18 0.10 0.06 0.12 0.13 0.05 0.00 0.00 0.00 0.00 0.00 0.00 0.00 0.00 0.00 0.00 0.00 0.00 0.00 0.00 0.00 0.01 0.00 0.00 0.00 0.00 0.00 0.00 0.00 0.00 0.00 0.00 0.00 0.00 0.00 0.00 0.00
0.78 0.55 0.56 0.48 0.36 0.22 0.16 0.09 0.04 0.06 0.12 0.07 0.02 0.01 0.01 0.01 0.00 0.00 0.00 0.00 0.00 0.00 0.00 0.00 0.00 0.00 0.00 0.00 0.00 0.00 0.00 0.01 0.00 0.00 0.00 0.00 0.00 0.00 0.00 0.00 0.00 0.00 0.00
0.61 0.54 0.57 0.50 0.35 0.25 0.27 0.18 0.05 0.05 0.07 0.06 0.02 0.00 0.02 0.02 0.00 0.00 0.00 0.00 0.00 0.00 0.00 0.00 0.00 0.00 0.00 0.00 0.00 0.00 0.00 0.01 0.01 0.00 0.00 0.00 0.00 0.00 0.00 0.00 0.00 0.00 0.00
0.45 0.43 0.48 0.53 0.29 0.24 0.18 0.15 0.06 0.03 0.03 0.04 0.02 0.01 0.01 0.01 0.01 0.00 0.00 0.00 0.00 0.00 0.00 0.00 0.00 0.00 0.00 0.00 0.00 0.00 0.00 0.00 0.00 0.01 0.01 0.00 0.00 0.00 0.00 0.00 0.00 0.00 0.00
0.31 0.40 0.35 0.44 0.26 0.24 0.19 0.11 0.05 0.03 0.02 0.01 0.01 0.01 0.00 0.00 0.00 0.01 0.00 0.00 0.00 0.00 0.00 0.00 0.00 0.00 0.00 0.00 0.00 0.00 0.00 0.00 0.00 0.00 0.01 0.02 0.02 0.00 0.00 0.00 0.00 0.00 0.00
0.22 0.37 0.44 0.47 0.34 0.24 0.19 0.10 0.03 0.03 0.02 0.01 0.00 0.01 0.00 0.01 0.01 0.01 0.00 0.00 0.00 0.00 0.00 0.00 0.00 0.00 0.00 0.00 0.00 0.00 0.00 0.00 0.00 0.00 0.00 0.00 0.01 0.03 0.02 0.00 0.00 0.00 0.00
0.10 0.26 0.50 0.51 0.41 0.31 0.21 0.09 0.03 0.03 0.02 0.02 0.01 0.02 0.01 0.01 0.01 0.01 0.00 0.00 0.00 0.00 0.00 0.00 0.00 0.00 0.00 0.00 0.00 0.00 0.00 0.00 0.00 0.00 0.00 0.00 0.00 0.00 0.01 0.02 0.02 0.02 0.00
0.03 0.07 0.18 0.36 0.36 0.31 0.20 0.11 0.06 0.05 0.04 0.02 0.02 0.02 0.02 0.02 0.00 0.00 0.00 0.00 0.00 0.00 0.00 0.00 0.00 0.00 0.00 0.00 0.00 0.00 0.00 0.00 0.00 0.00 0.00 0.00 0.00 0.00 0.00 0.00 0.01 0.02 0.02
0.01 0.02 0.04 0.13 0.26 0.29 0.17 0.14 0.11 0.09 0.07 0.04 0.03 0.02 0.03 0.02 0.00 0.00 0.00 0.00 0.00 0.00 0.00 0.00 0.00 0.00 0.00 0.00 0.00 0.00 0.00 0.00 0.00 0.00 0.00 0.00 0.00 0.00 0.00 0.00 0.00 0.00 0.01
0.00 0.02 0.02 0.06 0.17 0.22 0.21 0.13 0.09 0.08 0.08 0.06 0.04 0.03 0.02 0.02 0.02 0.02 0.01 0.00 0.02 0.03 0.01 0.00 0.00 0.00 0.00 0.00 0.00 0.00 0.00 0.00 0.00 0.00 0.00 0.00 0.00 0.00 0.00 0.00 0.00 0.00 0.00
0.00 0.00 0.03 0.05 0.06 0.11 0.18 0.11 0.03 0.02 0.01 0.02 0.02 0.01 0.02 0.01 0.01 0.02 0.04 0.03 0.03 0.06 0.04 0.00 0.00 0.00 0.00 0.01 0.00 0.00 0.00 0.00 0.00 0.00 0.00 0.00 0.00 0.00 0.00 0.00 0.00 0.00 0.00
0.00 0.01 0.00 0.02 0.04 0.02 0.06 0.11 0.06 0.01 0.01 0.00 0.00 0.01 0.00 0.00 0.02 0.02 0.03 0.04 0.05 0.05 0.06 0.02 0.00 0.00 0.01 0.01 0.00 0.00 0.00 0.00 0.00 0.00 0.00 0.00 0.00 0.00 0.00 0.00 0.00 0.00 0.00
0.00 0.01 0.01 0.00 0.00 0.00 0.01 0.02 0.04 0.01 0.00 0.01 0.00 0.00 0.00 0.01 0.01 0.01 0.02 0.02 0.02 0.02 0.07 0.06 0.01 0.00 0.00 0.00 0.00 0.00 0.00 0.00 0.00 0.00 0.00 0.00 0.00 0.00 0.00 0.00 0.00 0.00 0.01
0.01 0.01 0.02 0.01 0.00 0.00 0.00 0.00 0.01 0.01 0.00 0.00 0.00 0.00 0.00 0.00 0.00 0.01 0.01 0.01 0.01 0.02 0.02 0.02 0.00 0.01 0.01 0.01 0.02 0.01 0.00 0.00 0.00 0.00 0.00 0.00 0.00 0.00 0.00 0.01 0.01 0.01 0.03
0.02 0.01 0.02 0.02 0.01 0.01 0.00 0.01 0.01 0.01 0.00 0.00 0.00 0.00 0.00 0.00 0.00 0.01 0.03 0.03 0.04 0.06 0.07 0.06 0.01 0.01 0.03 0.01 0.05 0.01 0.02 0.00 0.00 0.00 0.00 0.00 0.00 0.00 0.00 0.01 0.02 0.03 0.05
0.01 0.01 0.01 0.01 0.02 0.03 0.02 0.01 0.00 0.01 0.01 0.00 0.00 0.00 0.00 0.00 0.00 0.01 0.02 0.04 0.11 0.12 0.11 0.11 0.06 0.03 0.03 0.02 0.03 0.03 0.04 0.02 0.03 0.04 0.03 0.03 0.03 0.04 0.03 0.04 0.06 0.06 0.07
0.02 0.02 0.02 0.02 0.02 0.01 0.02 0.01 0.01 0.01 0.01 0.00 0.00 0.00 0.00 0.00 0.00 0.00 0.00 0.00 0.02 0.04 0.03 0.04 0.04 0.04 0.01 0.01 0.02 0.03 0.04 0.04 0.02 0.01 0.02 0.02 0.03 0.05 0.05 0.04 0.11 0.15 0.13
0.06 0.07 0.07 0.08 0.09 0.11 0.18 0.10 0.09 0.02 0.02 0.02 0.02 0.02 0.02 0.02 0.04 0.01 0.01 0.02 0.01 0.03 0.07 0.08 0.04 0.06 0.15 0.23 0.21 0.15 0.12 0.14 0.12 0.08 0.08 0.09 0.17 0.17 0.16 0.17 0.24 0.14 0.13
0.08 0.09 0.09 0.10 0.11 0.18 0.21 0.14 0.12 0.07 0.06 0.09 0.10 0.07 0.06 0.05 0.10 0.09 0.03 0.03 0.05 0.13 0.22 0.37 0.55 0.61 0.62 0.41 0.31 0.29 0.27 0.28 0.27 0.32 0.31 0.34 0.33 0.30 0.28 0.30 0.55 0.29 0.22
0.13 0.08 0.07 0.07 0.07 0.10 0.20 0.06 0.05 0.03 0.09 0.11 0.12 0.18 0.17 0.07 0.15 0.10 0.04 0.04 0.05 0.10 0.24 0.24 0.33 0.27 0.21 0.17 0.16 0.21 0.38 0.56 0.62 0.61 0.59 0.55 0.50 0.49 0.47 0.43 0.52 0.59 0.38
0.16 0.14 0.11 0.07 0.08 0.03 0.13 0.04 0.03 0.02 0.06 0.06 0.07 0.13 0.31 0.15 0.09 0.05 0.04 0.07 0.12 0.17 0.22 0.22 0.29 0.31 0.28 0.29 0.37 0.27 0.28 0.52 0.90 0.90 0.83 0.69 0.63 0.64 0.70 0.76 0.71 0.66 0.57

GFSMA_prec_precacc12_102.txt.gz
Total_Precipitation_Accumulation
0.07 0.09 0.13 0.24 0.35 0.67 0.76 0.38 0.20 0.24 0.27 0.33 0.28 0.20 0.03 0.02 0.01 0.00 0.00 0.00 0.01 0.01 0.01 0.03 0.03 0.03 0.02 0.01 0.01 0.00 0.00 0.00 0.00 0.00 0.00 0.00 0.00 0.00 0.00 0.00 0.00 0.00 0.00
0.09 0.14 0.19 0.22 0.25 0.47 0.60 0.48 0.18 0.22 0.25 0.24 0.26 0.14 0.01 0.02 0.01 0.00 0.00 0.00 0.01 0.01 0.03 0.03 0.03 0.03 0.02 0.01 0.00 0.00 0.00 0.00 0.00 0.00 0.00 0.00 0.00 0.00 0.00 0.00 0.00 0.00 0.00
0.10 0.20 0.28 0.23 0.23 0.32 0.29 0.38 0.26 0.30 0.28 0.26 0.20 0.12 0.01 0.00 0.00 0.00 0.00 0.00 0.01 0.01 0.03 0.04 0.04 0.03 0.02 0.01 0.00 0.00 0.00 0.00 0.00 0.00 0.00 0.00 0.00 0.00 0.00 0.00 0.00 0.00 0.00
0.12 0.32 0.32 0.29 0.33 0.28 0.18 0.20 0.11 0.22 0.31 0.26 0.20 0.08 0.01 0.00 0.00 0.00 0.00 0.00 0.00 0.00 0.02 0.03 0.03 0.03 0.02 0.01 0.00 0.00 0.00 0.00 0.00 0.00 0.00 0.00 0.00 0.00 0.00 0.00 0.00 0.00 0.00
0.20 0.41 0.44 0.34 0.35 0.31 0.15 0.10 0.07 0.11 0.23 0.26 0.17 0.07 0.00 0.00 0.00 0.00 0.00 0.00 0.00 0.00 0.00 0.01 0.01 0.01 0.01 0.01 0.00 0.01 0.01 0.00 0.00 0.00 0.00 0.00 0.00 0.00 0.00 0.00 0.00 0.00 0.00
0.36 0.48 0.57 0.40 0.33 0.27 0.20 0.11 0.06 0.13 0.16 0.15 0.12 0.05 0.00 0.00 0.00 0.00 0.00 0.00 0.00 0.00 0.00 0.00 0.00 0.00 0.00 0.01 0.01 0.01 0.01 0.00 0.00 0.00 0.00 0.00 0.00 0.00 0.00 0.00 0.00 0.00 0.00
0.53 0.50 0.55 0.47 0.40 0.25 0.17 0.11 0.04 0.07 0.20 0.19 0.12 0.04 0.02 0.01 0.00 0.00 0.00 0.00 0.00 0.00 0.00 0.00 0.00 0.00 0.00 0.00 0.00 0.00 0.00 0.01 0.00 0.00 0.00 0.00 0.00 0.00 0.00 0.00 0.00 0.00 0.00
0.43 0.44 0.53 0.48 0.39 0.34 0.32 0.21 0.06 0.06 0.15 0.18 0.09 0.01 0.04 0.04 0.01 0.00 0.00 0.00 0.00 0.00 0.00 0.00 0.00 0.00 0.00 0.00 0.00 0.00 0.00 0.01 0.01 0.00 0.00 0.00 0.00 0.00 0.00 0.00 0.00 0.00 0.00
0.34 0.28 0.39 0.49 0.40 0.41 0.45 0.31 0.09 0.04 0.06 0.16 0.07 0.01 0.01 0.02 0.01 0.01 0.00 0.00 0.00 0.00 0.00 0.00 0.00 0.00 0.00 0.00 0.00 0.00 0.00 0.00 0.00 0.01 0.01 0.00 0.00 0.00 0.00 0.00 0.00 0.00 0.00
0.19 0.26 0.20 0.39 0.33 0.38 0.39 0.31 0.15 0.08 0.06 0.07 0.04 0.01 0.00 0.00 0.00 0.02 0.01 0.00 0.00 0.00 0.00 0.00 0.00 0.00 0.00 0.00 0.00 0.00 0.00 0.00 0.00 0.00 0.01 0.02 0.01 0.00 0.00 0.00 0.00 0.00 0.00
0.15 0.24 0.35 0.37 0.39 0.38 0.32 0.21 0.17 0.12 0.08 0.05 0.00 0.01 0.01 0.01 0.02 0.01 0.00 0.00 0.00 0.00 0.00 0.00 0.00 0.00 0.00 0.00 0.00 0.00 0.00 0.00 0.00 0.00 0.00 0.00 0.01 0.02 0.01 0.00 0.00 0.00 0.00
0.05 0.18 0.39 0.46 0.44 0.44 0.41 0.22 0.15 0.11 0.08 0.09 0.04 0.03 0.01 0.02 0.02 0.02 0.01 0.02 0.01 0.00 0.00 0.00 0.00 0.00 0.00 0.00 0.00 0.00 0.00 0.00 0.00 0.00 0.00 0.00 0.00 0.00 0.00 0.01 0.01 0.01 0.00
0.02 0.06 0.14 0.33 0.37 0.44 0.40 0.34 0.22 0.14 0.15 0.12 0.07 0.05 0.03 0.03 0.01 0.01 0.00 0.00 0.01 0.00 0.00 0.00 0.00 0.00 0.00 0.00 0.00 0.00 0.00 0.00 0.00 0.00 0.00 0.00 0.00 0.00 0.00 0.00 0.00 0.00 0.01
0.01 0.02 0.04 0.12 0.28 0.41 0.35 0.32 0.29 0.18 0.15 0.13 0.08 0.05 0.04 0.03 0.01 0.00 0.00 0.00 0.00 0.00 0.01 0.00 0.00 0.00 0.00 0.00 0.00 0.00 0.00 0.00 0.00 0.00 0.00 0.00 0.00 0.00 0.00 0.00 0.00 0.00 0.00
0.01 0.02 0.02 0.06 0.18 0.26 0.31 0.25 0.25 0.24 0.19 0.15 0.09 0.05 0.03 0.03 0.02 0.02 0.02 0.01 0.03 0.03 0.01 0.00 0.00 0.00 0.00 0.00 0.00 0.00 0.00 0.00 0.00 0.00 0.00 0.00 0.00 0.00 0.00 0.00 0.00 0.00 0.00
0.00 0.00 0.03 0.05 0.06 0.12 0.21 0.18 0.12 0.10 0.11 0.08 0.08 0.05 0.02 0.01 0.01 0.01 0.04 0.06 0.07 0.08 0.04 0.00 0.00 0.00 0.01 0.03 0.02 0.01 0.00 0.00 0.00 0.00 0.00 0.00 0.00 0.00 0.00 0.00 0.00 0.00 0.00
0.00 0.01 0.00 0.02 0.04 0.03 0.07 0.12 0.09 0.05 0.02 0.02 0.02 0.01 0.00 0.00 0.01 0.01 0.02 0.04 0.04 0.04 0.05 0.01 0.00 0.00 0.01 0.01 0.00 0.00 0.00 0.00 0.00 0.00 0.00 0.00 0.00 0.00 0.00 0.00 0.00 0.00 0.00
0.01 0.01 0.01 0.00 0.00 0.01 0.01 0.03 0.07 0.06 0.07 0.04 0.02 0.01 0.00 0.00 0.00 0.01 0.02 0.02 0.02 0.02 0.05 0.04 0.00 0.00 0.00 0.00 0.00 0.00 0.00 0.00 0.00 0.00 0.00 0.00 0.00 0.00 0.00 0.00 0.00 0.00 0.00
0.01 0.02 0.03 0.01 0.00 0.00 0.01 0.02 0.01 0.02 0.02 0.01 0.02 0.02 0.01 0.01 0.01 0.00 0.01 0.01 0.01 0.01 0.02 0.01 0.00 0.01 0.01 0.01 0.02 0.01 0.00 0.00 0.00 0.00 0.00 0.00 0.00 0.00 0.00 0.00 0.00 0.00 0.00
0.02 0.02 0.03 0.02 0.02 0.01 0.01 0.02 0.02 0.02 0.01 0.00 0.00 0.00 0.00 0.00 0.00 0.01 0.03 0.03 0.04 0.06 0.07 0.06 0.01 0.01 0.03 0.01 0.06 0.02 0.02 0.01 0.01 0.01 0.01 0.01 0.01 0.01 0.00 0.00 0.00 0.00 0.00
0.02 0.02 0.03 0.05 0.04 0.03 0.02 0.01 0.00 0.01 0.01 0.00 0.00 0.00 0.00 0.00 0.00 0.01 0.02 0.04 0.11 0.12 0.11 0.12 0.07 0.04 0.04 0.04 0.06 0.07 0.09 0.05 0.07 0.10 0.11 0.09 0.09 0.08 0.06 0.06 0.04 0.03 0.04
0.02 0.02 0.02 0.02 0.03 0.02 0.04 0.01 0.01 0.01 0.01 0.01 0.02 0.02 0.01 0.01 0.00 0.00 0.00 0.00 0.02 0.04 0.05 0.06 0.07 0.08 0.03 0.05 0.05 0.07 0.08 0.08 0.06 0.06 0.07 0.07 0.08 0.13 0.14 0.08 0.06 0.03 0.03
0.05 0.08 0.08 0.08 0.09 0.12 0.16 0.05 0.05 0.02 0.05 0.07 0.05 0.04 0.05 0.05 0.05 0.01 0.02 0.02 0.01 0.06 0.10 0.11 0.05 0.07 0.17 0.29 0.30 0.26 0.24 0.28 0.25 0.20 0.17 0.17 0.24 0.29 0.28 0.26 0.26 0.08 0.05
0.07 0.07 0.08 0.10 0.10 0.18 0.16 0.05 0.05 0.02 0.05 0.09 0.11 0.08 0.06 0.05 0.12 0.11 0.04 0.07 0.11 0.19 0.30 0.44 0.64 0.76 0.77 0.54 0.40 0.36 0.34 0.32 0.30 0.39 0.39 0.40 0.36 0.34 0.31 0.30 0.49 0.21 0.14
0.17 0.10 0.07 0.06 0.07 0.08 0.13 0.04 0.04 0.02 0.08 0.13 0.15 0.22 0.22 0.12 0.25 0.16 0.09 0.11 0.14 0.22 0.38 0.32 0.36 0.30 0.23 0.18 0.16 0.21 0.36 0.49 0.53 0.54 0.53 0.50 0.46 0.42 0.38 0.33 0.38 0.44 0.26
0.45 0.35 0.29 0.23 0.18 0.09 0.14 0.12 0.12 0.12 0.16 0.18 0.20 0.23 0.40 0.25 0.26 0.21 0.18 0.19 0.17 0.22 0.26 0.23 0.28 0.30 0.28 0.27 0.33 0.25 0.27 0.45 0.68 0.66 0.55 0.47 0.43 0.46 0.50 0.52 0.47 0.44 0.39